Back to catalog

SATCOM K1

AliveCommunicationsGEO
NORAD 16482·PAYLOAD·🇺🇸 United States

Launched Jan 12, 1986 from Cape Canaveral Space Force Station

Loading…

TLE

FreshSource: Space-Track

Epoch: Sep 13, 2026, 17:40 UTC

1 16482U 86003B   26256.73644122 -.00000058  00000-0  00000-0 0  9992
2 16482  14.6598 350.4142 0005739 222.9685 128.1244  0.99552849125329

Track SATCOM K1 in real time with AllMySat

Download on the App Store